Location: Unspecified
(0.0000°N, 0.0000°E)
Time: 01:46:22
(UTC+00:00)

Tiros 1 - Pass Details

Date: 20 April 2026
Orbit: 618 x 648 km, 48.4° (Epoch: 15 May)

Event Time Altitude Azimuth Distance (km) Brightness Sun altitude
Rises 19:09:07 0° 284° (WNW) 2,942 12.3 -17.2°
Reaches altitude 10° 19:12:44 10° 256° (WSW) 2,039 10.7 -18.1°
Maximum altitude 19:14:49 13° 230° (SW) 1,861 10.0 -18.6°
Drops below altitude 10° 19:16:54 10° 203° (SSW) 2,043 9.8 -19.1°
Enters shadow 19:20:16 - 176° (S) 2,874 10.3 -19.9°
